WOLF21 Weather Reports


time (UTC)temp
C
wind
direction
speed
KPH
gust
KPH
rain 1hr
cm
rain 24hr
cm
rain mn
cm
humidity
%
barometer
mb
20260903024546 25 0 0.0 0.0 0.00 0.00 0.00 86 1016.7
20260903023043 25 0 0.0 0.0 0.00 0.00 0.00 85 1016.8
20260903021553 26 0 0.0 0.0 0.00 0.00 0.00 84 1016.7
20260903020055 26 0 0.0 0.0 0.00 0.00 0.00 82 1016.7
20260903014607 27 0 0.0 0.0 0.00 0.00 0.00 80 1016.7
20260903013102 27 0 0.0 0.0 0.00 0.00 0.00 79 1016.5
20260903011615 28 0 0.0 0.0 0.00 0.00 0.00 76 1016.3
20260903010105 28 0 0.0 0.0 0.00 0.00 0.00 74 1016.2
20260903004546 29 0 0.0 1.6 0.00 0.00 0.00 71 1016.1
20260903003108 30 0 0.0 3.2 0.00 0.00 0.00 69 1016.0
20260903001559 30 254 1.6 4.8 0.00 0.00 0.00 67 1016.0
20260903000054 30 251 1.6 6.4 0.00 0.00 0.00 66 1015.9
20260902234550 31 301 1.6 6.4 0.00 0.00 0.00 65 1015.9
20260902233046 31 225 1.6 14.5 0.00 0.00 0.00 64 1015.9
20260902231550 31 229 1.6 14.5 0.00 0.00 0.00 63 1016.0
20260902230100 32 256 4.8 14.5 0.00 0.00 0.00 61 1016.0
20260902224557 32 297 4.8 17.7 0.00 0.00 0.00 60 1016.1
20260902223047 32 286 4.8 14.5 0.00 0.00 0.00 60 1016.0
20260902221554 33 261 3.2 12.9 0.00 0.00 0.00 60 1016.0
20260902220057 33 206 4.8 12.9 0.00 0.00 0.00 59 1016.1
20260902214555 33 249 4.8 12.9 0.00 0.00 0.00 59 1016.2
20260902213047 33 221 4.8 14.5 0.00 0.00 0.00 59 1016.2
20260902211553 33 218 8.0 14.5 0.00 0.00 0.00 58 1016.4
20260902210054 33 232 4.8 14.5 0.00 0.00 0.00 56 1016.3
20260902204552 33 232 4.8 16.1 0.00 0.00 0.00 57 1016.5
20260902203048 33 261 6.4 17.7 0.00 0.00 0.00 56 1016.7
20260902201600 33 254 4.8 16.1 0.00 0.00 0.00 55 1016.8
20260902200051 33 284 8.0 14.5 0.00 0.00 0.00 58 1016.9
20260902194554 33 229 8.0 17.7 0.00 0.00 0.00 55 1017.1
20260902193047 33 236 6.4 16.1 0.00 0.00 0.00 57 1017.1
20260902191552 34 214 4.8 14.5 0.00 0.00 0.00 57 1017.4
20260902190053 33 236 6.4 20.9 0.00 0.00 0.00 58 1017.4
20260902184553 33 265 4.8 16.1 0.00 0.00 0.00 59 1017.6
20260902183050 33 240 3.2 12.9 0.00 0.00 0.00 57 1017.8
20260902181556 33 200 6.4 14.5 0.00 0.00 0.00 58 1017.8
20260902180057 33 247 6.4 17.7 0.00 0.00 0.00 58 1017.9
20260902174552 33 225 6.4 16.1 0.00 0.00 0.00 62 1018.2
20260902173046 33 189 4.8 16.1 0.00 0.00 0.00 60 1018.4
20260902171557 33 234 4.8 12.9 0.00 0.00 0.00 63 1018.6
20260902170047 32 272 4.8 16.1 0.00 0.00 0.00 64 1018.6
20260902164557 32 242 6.4 12.9 0.00 0.00 0.00 64 1018.6
20260902163053 32 213 3.2 12.9 0.00 0.00 0.00 64 1018.6
20260902161551 31 360 3.2 12.9 0.00 0.00 0.00 66 1018.7
20260902160055 31 261 6.4 12.9 0.00 0.00 0.00 65 1018.7
20260902154559 31 286 3.2 11.3 0.00 0.00 0.00 67 1018.8
20260902153051 31 228 3.2 11.3 0.00 0.00 0.00 69 1018.8
20260902151553 30 183 3.2 11.3 0.00 0.00 0.00 69 1018.8
20260902150046 30 227 4.8 11.3 0.00 0.00 0.00 68 1018.9
20260902144551 30 319 6.4 14.5 0.00 0.00 0.00 70 1019.0
20260902143053 29 0 3.2 9.7 0.00 0.00 0.00 71 1019.0
20260902141547 28 338 0.0 6.4 0.00 0.00 0.00 76 1019.0
20260902140047 27 261 3.2 11.3 0.00 0.00 0.00 78 1018.9
20260902134558 26 225 1.6 4.8 0.00 0.00 0.00 83 1018.9
20260902133050 26 222 1.6 4.8 0.00 0.00 0.00 85 1019.0
20260902131551 25 249 1.6 8.0 0.00 0.00 0.00 87 1019.0
20260902130053 24 190 0.0 3.2 0.00 0.00 0.00 89 1019.0
20260902124553 23 223 0.0 4.8 0.00 0.00 0.00 91 1018.9
20260902123050 23 263 3.2 6.4 0.00 0.00 0.00 92 1018.8
20260902121548 22 0 0.0 4.8 0.00 0.00 0.00 94 1018.8
20260902120057 22 223 0.0 3.2 0.00 0.00 0.00 95 1018.7
20260902114553 21 0 0.0 4.8 0.00 0.00 0.00 96 1018.5
20260902113052 21 0 0.0 0.0 0.00 0.00 0.00 96 1018.3
20260902111547 21 0 0.0 0.0 0.00 0.00 0.00 95 1018.2
20260902110043 21 0 0.0 0.0 0.00 0.00 0.00 95 1018.2
20260902104615 21 0 0.0 0.0 0.00 0.00 0.00 95 1018.2
20260902103054 21 0 0.0 0.0 0.00 0.00 0.00 94 1018.1
20260902101547 21 0 0.0 0.0 0.00 0.00 0.00 95 1018.1
20260902100106 21 0 0.0 0.0 0.00 0.00 0.00 95 1018.0
20260902094553 21 0 0.0 0.0 0.00 0.00 0.00 94 1018.2
20260902093107 21 0 0.0 0.0 0.00 0.00 0.00 95 1018.1
20260902091547 21 0 0.0 0.0 0.00 0.00 0.00 94 1017.9
20260902090100 21 0 0.0 0.0 0.00 0.00 0.00 93 1017.8
20260902084556 22 0 0.0 0.0 0.00 0.00 0.00 93 1017.7
20260902083104 22 0 0.0 0.0 0.00 0.00 0.00 93 1017.6
20260902081607 22 0 0.0 0.0 0.00 0.00 0.00 92 1017.5
20260902080055 22 0 0.0 0.0 0.00 0.00 0.00 92 1017.4
20260902074553 22 0 0.0 0.0 0.00 0.00 0.00 91 1017.3
20260902073053 22 0 0.0 1.6 0.00 0.00 0.00 91 1017.2
20260902071559 22 0 0.0 1.6 0.00 0.00 0.00 91 1017.2
20260902070056 22 0 0.0 0.0 0.00 0.00 0.00 91 1017.2
20260902064604 23 0 0.0 0.0 0.00 0.00 0.00 91 1017.3
20260902063112 23 0 0.0 0.0 0.00 0.00 0.00 90 1017.3
20260902060123 23 0 0.0 0.0 0.00 0.00 0.00 89 1017.4
20260902054552 23 0 0.0 0.0 0.00 0.00 0.00 89 1017.5
20260902053052 23 0 0.0 0.0 0.00 0.00 0.00 88 1017.4
20260902051601 23 0 0.0 0.0 0.00 0.00 0.00 88 1017.3
20260902050059 23 0 0.0 0.0 0.00 0.00 0.00 88 1017.3
20260902044554 23 0 0.0 0.0 0.00 0.00 0.00 87 1017.4
20260902043053 24 0 0.0 0.0 0.00 0.00 0.00 87 1017.4
20260902041549 24 0 0.0 0.0 0.00 0.00 0.00 86 1017.5
20260902040100 25 0 0.0 0.0 0.00 0.00 0.00 85 1017.6
20260902034553 25 0 0.0 0.0 0.00 0.00 0.00 84 1017.4
20260902033053 25 0 0.0 1.6 0.00 0.00 0.00 83 1017.4
20260902031552 25 0 0.0 1.6 0.00 0.00 0.00 85 1017.4
20260902030054 25 0 0.0 0.0 0.00 0.00 0.00 87 1017.5